| time (UTC) | temp F | wind direction | speed MPH | gust MPH | rain 1hr in | rain 24hr in | rain mn in | humidity % | barometer mb |
| 20260508054504 | 65 | 188 | 10.0 | 14.0 | 0.00 | 0.00 | 0.00 | 46 | 1057.2 |
| 20260508053005 | 65 | 171 | 10.0 | 15.0 | 0.00 | 0.00 | 0.00 | 45 | 1057.2 |
| 20260508051504 | 65 | 173 | 13.0 | 14.0 | 0.00 | 0.00 | 0.00 | 44 | 1057.2 |
| 20260508050026 | 66 | 201 | 9.0 | 13.0 | 0.00 | 0.00 | 0.00 | 44 | 1057.6 |
| 20260508045008 | 66 | 189 | 8.0 | 9.0 | 0.00 | 0.00 | 0.00 | 43 | 1057.2 |
| 20260508042003 | 67 | 163 | 7.0 | 11.0 | 0.00 | 0.00 | 0.00 | 42 | 1057.6 |
| 20260508040502 | 67 | 205 | 10.0 | 12.0 | 0.00 | 0.00 | 0.00 | 42 | 1057.6 |
| 20260508035003 | 67 | 165 | 8.0 | 11.0 | 0.00 | 0.00 | 0.00 | 41 | 1057.6 |
| 20260508033502 | 68 | 170 | 6.0 | 9.0 | 0.00 | 0.00 | 0.00 | 40 | 1057.6 |
| 20260508032002 | 68 | 193 | 6.0 | 11.0 | 0.00 | 0.00 | 0.00 | 39 | 1057.6 |
| 20260508030502 | 68 | 167 | 8.0 | 10.0 | 0.00 | 0.00 | 0.00 | 38 | 1057.6 |
| 20260508025002 | 69 | 194 | 9.0 | 11.0 | 0.00 | 0.00 | 0.00 | 36 | 1057.6 |
| 20260508023503 | 70 | 174 | 7.0 | 9.0 | 0.00 | 0.00 | 0.00 | 34 | 1057.2 |
| 20260508022003 | 70 | 211 | 6.0 | 7.0 | 0.00 | 0.00 | 0.00 | 32 | 1057.2 |
| 20260508021002 | 71 | 116 | 3.0 | 7.0 | 0.00 | 0.00 | 0.00 | 31 | 1057.2 |
| 20260508015502 | 71 | 193 | 3.0 | 9.0 | 0.00 | 0.00 | 0.00 | 31 | 1056.9 |
| 20260508013002 | 72 | 212 | 8.0 | 12.0 | 0.00 | 0.00 | 0.00 | 30 | 1056.9 |
| 20260508011502 | 73 | 173 | 9.0 | 13.0 | 0.00 | 0.00 | 0.00 | 30 | 1056.9 |
| 20260508010002 | 74 | 193 | 9.0 | 10.0 | 0.00 | 0.00 | 0.00 | 29 | 1056.6 |
| 20260508004503 | 74 | 216 | 6.0 | 9.0 | 0.00 | 0.00 | 0.00 | 29 | 1056.6 |
| 20260508003002 | 75 | 200 | 7.0 | 8.0 | 0.00 | 0.00 | 0.00 | 28 | 1056.6 |
| 20260508001503 | 75 | 170 | 8.0 | 10.0 | 0.00 | 0.00 | 0.00 | 28 | 1056.6 |
| 20260508000004 | 76 | 218 | 4.0 | 7.0 | 0.00 | 0.00 | 0.00 | 28 | 1056.6 |
| 20260507235003 | 75 | 189 | 8.0 | 8.0 | 0.00 | 0.00 | 0.00 | 28 | 1056.6 |
| 20260507233502 | 76 | 168 | 7.0 | 10.0 | 0.00 | 0.00 | 0.00 | 28 | 1056.6 |
| 20260507232003 | 76 | 220 | 3.0 | 6.0 | 0.00 | 0.00 | 0.00 | 27 | 1056.9 |
| 20260507230502 | 76 | 205 | 8.0 | 13.0 | 0.00 | 0.00 | 0.00 | 27 | 1056.9 |
| 20260507225002 | 77 | 298 | 5.0 | 7.0 | 0.00 | 0.00 | 0.00 | 25 | 1057.2 |
| 20260507223502 | 75 | 295 | 5.0 | 8.0 | 0.00 | 0.00 | 0.00 | 26 | 1057.2 |
| 20260507222003 | 75 | 291 | 9.0 | 12.0 | 0.00 | 0.00 | 0.00 | 27 | 1057.2 |
| 20260507221002 | 76 | 227 | 9.0 | 9.0 | 0.00 | 0.00 | 0.00 | 27 | 1057.6 |
| 20260507215506 | 76 | 229 | 6.0 | 10.0 | 0.00 | 0.00 | 0.00 | 27 | 1057.2 |
| 20260507214502 | 76 | 205 | 8.0 | 11.0 | 0.00 | 0.00 | 0.00 | 27 | 1057.6 |
| 20260507213004 | 74 | 238 | 8.0 | 11.0 | 0.00 | 0.00 | 0.00 | 28 | 1057.9 |
| 20260507211502 | 74 | 21 | 2.0 | 7.0 | 0.00 | 0.00 | 0.00 | 28 | 1058.6 |
| 20260507210003 | 75 | 15 | 1.0 | 7.0 | 0.00 | 0.00 | 0.00 | 28 | 1058.6 |
| 20260507203003 | 74 | 264 | 2.0 | 8.0 | 0.00 | 0.00 | 0.00 | 29 | 1059.3 |
| 20260507201502 | 74 | 312 | 7.0 | 9.0 | 0.00 | 0.00 | 0.00 | 29 | 1059.6 |
| 20260507200003 | 72 | 323 | 7.0 | 13.0 | 0.00 | 0.00 | 0.00 | 31 | 1059.9 |
| 20260507194503 | 72 | 252 | 7.0 | 11.0 | 0.00 | 0.00 | 0.00 | 31 | 1060.3 |
| 20260507193003 | 71 | 239 | 12.0 | 12.0 | 0.00 | 0.00 | 0.00 | 34 | 1060.3 |
| 20260507191502 | 72 | 150 | 8.0 | 11.0 | 0.00 | 0.00 | 0.00 | 34 | 1060.6 |
| 20260507190003 | 70 | 197 | 11.0 | 15.0 | 0.00 | 0.00 | 0.00 | 33 | 1061.0 |
| 20260507184503 | 69 | 293 | 6.0 | 16.0 | 0.00 | 0.00 | 0.00 | 34 | 1061.3 |
| 20260507183502 | 71 | 224 | 7.0 | 12.0 | 0.00 | 0.00 | 0.00 | 34 | 1061.3 |
| 20260507182005 | 70 | 240 | 7.0 | 13.0 | 0.00 | 0.00 | 0.00 | 36 | 1061.3 |
| 20260507180002 | 68 | 219 | 7.0 | 16.0 | 0.00 | 0.00 | 0.00 | 37 | 1061.6 |
| 20260507174503 | 67 | 238 | 9.0 | 13.0 | 0.00 | 0.00 | 0.00 | 37 | 1062.3 |
| 20260507173004 | 68 | 216 | 12.0 | 12.0 | 0.00 | 0.00 | 0.00 | 36 | 1062.3 |
| 20260507171502 | 66 | 241 | 12.0 | 12.0 | 0.00 | 0.00 | 0.00 | 38 | 1062.6 |
| 20260507170003 | 67 | 172 | 11.0 | 11.0 | 0.00 | 0.00 | 0.00 | 37 | 1063.0 |
| 20260507164502 | 65 | 286 | 6.0 | 14.0 | 0.00 | 0.00 | 0.00 | 39 | 1063.0 |
| 20260507163003 | 67 | 205 | 10.0 | 10.0 | 0.00 | 0.00 | 0.00 | 37 | 1063.3 |
| 20260507161503 | 64 | 204 | 8.0 | 11.0 | 0.00 | 0.00 | 0.00 | 40 | 1063.3 |
| 20260507160003 | 63 | 221 | 10.0 | 13.0 | 0.00 | 0.00 | 0.00 | 39 | 1063.7 |
| 20260507154502 | 63 | 265 | 7.0 | 12.0 | 0.00 | 0.00 | 0.00 | 40 | 1063.7 |
| 20260507153003 | 62 | 214 | 8.0 | 10.0 | 0.00 | 0.00 | 0.00 | 40 | 1064.0 |
| 20260507151502 | 62 | 213 | 8.0 | 13.0 | 0.00 | 0.00 | 0.00 | 41 | 1064.0 |
| 20260507144503 | 60 | 266 | 6.0 | 8.0 | 0.00 | 0.00 | 0.00 | 44 | 1064.3 |
| 20260507141503 | 59 | 198 | 7.0 | 7.0 | 0.00 | 0.00 | 0.00 | 47 | 1064.7 |
| 20260507140003 | 58 | 212 | 3.0 | 7.0 | 0.00 | 0.00 | 0.00 | 50 | 1064.7 |
| 20260507134502 | 56 | 220 | 3.0 | 7.0 | 0.00 | 0.00 | 0.00 | 54 | 1064.7 |
| 20260507131503 | 53 | 215 | 3.0 | 4.0 | 0.00 | 0.00 | 0.00 | 64 | 1064.3 |
| 20260507130004 | 51 | 214 | 4.0 | 5.0 | 0.00 | 0.00 | 0.00 | 68 | 1064.7 |
| 20260507124503 | 50 | 217 | 3.0 | 5.0 | 0.00 | 0.00 | 0.00 | 70 | 1064.3 |
| 20260507123502 | 49 | 217 | 5.0 | 5.0 | 0.00 | 0.00 | 0.00 | 71 | 1064.0 |
| 20260507122003 | 49 | 205 | 3.0 | 4.0 | 0.00 | 0.00 | 0.00 | 72 | 1063.7 |
| 20260507120502 | 48 | 194 | 3.0 | 3.0 | 0.00 | 0.00 | 0.00 | 74 | 1063.3 |
| 20260507115002 | 47 | 218 | 2.0 | 2.0 | 0.00 | 0.00 | 0.00 | 76 | 1063.7 |
| 20260507113502 | 48 | 219 | 2.0 | 2.0 | 0.00 | 0.00 | 0.00 | 77 | 1063.3 |
| 20260507112002 | 48 | 303 | 0.0 | 2.0 | 0.00 | 0.00 | 0.00 | 75 | 1063.3 |
| 20260507105003 | 48 | 323 | 0.0 | 3.0 | 0.00 | 0.00 | 0.00 | 73 | 1063.3 |
| 20260507103503 | 49 | 301 | 2.0 | 3.0 | 0.00 | 0.00 | 0.00 | 70 | 1063.3 |
| 20260507102502 | 49 | 327 | 3.0 | 4.0 | 0.00 | 0.00 | 0.00 | 70 | 1063.3 |
| 20260507095502 | 48 | 329 | 2.0 | 3.0 | 0.00 | 0.00 | 0.00 | 71 | 1063.0 |
| 20260507094502 | 49 | 281 | 1.0 | 2.0 | 0.00 | 0.00 | 0.00 | 71 | 1063.0 |
| 20260507090003 | 49 | 294 | 0.0 | 0.0 | 0.00 | 0.00 | 0.00 | 71 | 1062.6 |
| 20260507084503 | 49 | 342 | 2.0 | 3.0 | 0.00 | 0.00 | 0.00 | 71 | 1063.0 |
| 20260507083502 | 49 | 312 | 2.0 | 3.0 | 0.00 | 0.00 | 0.00 | 70 | 1062.6 |